When you browse on this site, cookies collect data to enhance your experience and personalize the content and advertising you see.
Visit our Privacy Policy to learn more. By continuing to use the site, you agree to this use of cookies and data.
  • în România
  • Lista ţărilor
  • Pe 7 zile
  • Temperatura apei
  • Hartă satelitară
  • Meteo pe hartă
  • Widget-uri
  • user-avatar
    Intrare

    Meteo pe oră la Kiustendil

    Astăzi, 20 Iunie, Joi

    Timp Temperatura Precipitaţii Vânt Presiune Umiditate
    00:00 +11°C° 0.1 mm 1 m/s 624 mmHg 84%
    01:00 +10°C° 0 mm 1 m/s 624 mmHg 83%
    02:00 +10°C° 0 mm 1 m/s 624 mmHg 84%
    03:00 +10°C° 0 mm 1 m/s 624 mmHg 85%
    04:00 +9°C° 0 mm 0 m/s 623 mmHg 86%
    05:00 +10°C° 0.2 mm 0 m/s 624 mmHg 84%
    06:00 +12°C° 0.2 mm 0 m/s 625 mmHg 82%
    07:00 +13°C° 0.2 mm 0 m/s 626 mmHg 80%
    08:00 +16°C° 1.5 mm 1 m/s 626 mmHg 77%
    09:00 +18°C° 1.5 mm 1 m/s 626 mmHg 74%
    10:00 +19°C° 1.5 mm 1 m/s 626 mmHg 71%
    11:00 +19°C° 2.2 mm 1 m/s 626 mmHg 71%
    12:00 +18°C° 2.2 mm 2 m/s 626 mmHg 71%
    13:00 +17°C° 2.2 mm 2 m/s 626 mmHg 71%
    14:00 +18°C° 0.9 mm 1 m/s 626 mmHg 70%
    15:00 +19°C° 0.9 mm 1 m/s 626 mmHg 69%
    16:00 +19°C° 0.9 mm 1 m/s 626 mmHg 68%
    17:00 +16°C° 0.1 mm 1 m/s 625 mmHg 73%
    18:00 +14°C° 0.1 mm 1 m/s 625 mmHg 78%
    19:00 +12°C° 0.1 mm 0 m/s 624 mmHg 83%
    20:00 +12°C° 0 mm 1 m/s 624 mmHg 82%
    21:00 +12°C° 0 mm 1 m/s 624 mmHg 81%
    22:00 +11°C° 0 mm 1 m/s 624 mmHg 81%
    23:00 +11°C° 0 mm 1 m/s 624 mmHg 81%

    Mâine, 21 Iunie, Vineri

    Timp Temperatura Precipitaţii Vânt Presiune Umiditate
    00:00 +11°C° 0 mm 1 m/s 624 mmHg 81%
    01:00 +10°C° 0 mm 1 m/s 624 mmHg 81%
    02:00 +10°C° 0 mm 1 m/s 624 mmHg 82%
    03:00 +10°C° 0 mm 1 m/s 624 mmHg 83%
    04:00 +10°C° 0 mm 1 m/s 624 mmHg 83%
    05:00 +12°C° 0 mm 1 m/s 625 mmHg 80%
    06:00 +13°C° 0 mm 1 m/s 626 mmHg 77%
    07:00 +15°C° 0 mm 1 m/s 627 mmHg 74%
    08:00 +18°C° 0.1 mm 1 m/s 627 mmHg 68%
    09:00 +19°C° 0.1 mm 1 m/s 628 mmHg 63%
    10:00 +20°C° 0.1 mm 1 m/s 628 mmHg 58%
    11:00 +20°C° 0.9 mm 1 m/s 628 mmHg 60%
    12:00 +19°C° 0.9 mm 2 m/s 628 mmHg 62%
    13:00 +20°C° 0.9 mm 2 m/s 628 mmHg 63%
    14:00 +19°C° 0.8 mm 2 m/s 628 mmHg 64%
    15:00 +19°C° 0.8 mm 2 m/s 627 mmHg 64%
    16:00 +19°C° 0.8 mm 2 m/s 627 mmHg 65%
    17:00 +19°C° 0.1 mm 1 m/s 627 mmHg 70%
    18:00 +16°C° 0.1 mm 1 m/s 626 mmHg 75%
    19:00 +14°C° 0.1 mm 1 m/s 626 mmHg 81%
    20:00 +13°C° 0 mm 1 m/s 626 mmHg 81%
    21:00 +13°C° 0 mm 1 m/s 626 mmHg 82%
    22:00 +12°C° 0 mm 1 m/s 626 mmHg 82%
    23:00 +12°C° 0 mm 1 m/s 626 mmHg 82%

    Poimâine, 22 Iunie, Sâmbătă

    Timp Temperatura Precipitaţii Vânt Presiune Umiditate
    00:00 +11°C° 0 mm 1 m/s 626 mmHg 82%
    01:00 +11°C° 0 mm 1 m/s 626 mmHg 81%
    02:00 +11°C° 0 mm 1 m/s 625 mmHg 82%
    03:00 +11°C° 0 mm 1 m/s 625 mmHg 82%
    04:00 +10°C° 0 mm 1 m/s 625 mmHg 83%
    05:00 +12°C° 0 mm 1 m/s 626 mmHg 79%
    06:00 +14°C° 0 mm 1 m/s 627 mmHg 76%
    07:00 +16°C° 0 mm 1 m/s 628 mmHg 73%
    08:00 +18°C° 0 mm 1 m/s 629 mmHg 67%
    09:00 +20°C° 0 mm 1 m/s 629 mmHg 61%
    10:00 +21°C° 0 mm 1 m/s 629 mmHg 56%
    11:00 +22°C° 0.2 mm 1 m/s 629 mmHg 55%
    12:00 +21°C° 0.2 mm 2 m/s 629 mmHg 54%
    13:00 +21°C° 0.2 mm 2 m/s 629 mmHg 53%
    14:00 +22°C° 0.1 mm 1 m/s 629 mmHg 53%
    15:00 +22°C° 0.1 mm 1 m/s 629 mmHg 53%
    16:00 +22°C° 0.1 mm 1 m/s 629 mmHg 53%
    17:00 +20°C° 0 mm 1 m/s 628 mmHg 59%
    18:00 +18°C° 0 mm 1 m/s 627 mmHg 64%
    19:00 +16°C° 0 mm 1 m/s 627 mmHg 69%
    20:00 +15°C° 0 mm 1 m/s 627 mmHg 69%
    21:00 +15°C° 0 mm 1 m/s 627 mmHg 69%
    22:00 +14°C° 0 mm 1 m/s 626 mmHg 70%
    23:00 +14°C° 0 mm 1 m/s 626 mmHg 70%

    23 Iunie, Duminică

    Timp Temperatura Precipitaţii Vânt Presiune Umiditate
    00:00 +14°C° 0 mm 1 m/s 626 mmHg 70%
    01:00 +13°C° 0 mm 1 m/s 626 mmHg 71%
    02:00 +13°C° 0 mm 1 m/s 626 mmHg 71%
    03:00 +13°C° 0 mm 1 m/s 625 mmHg 72%
    04:00 +12°C° 0 mm 1 m/s 625 mmHg 72%
    05:00 +14°C° 0 mm 1 m/s 626 mmHg 70%
    06:00 +16°C° 0 mm 1 m/s 627 mmHg 67%
    07:00 +19°C° 0 mm 1 m/s 627 mmHg 65%
    08:00 +20°C° 0 mm 1 m/s 628 mmHg 61%
    09:00 +21°C° 0 mm 2 m/s 628 mmHg 58%
    10:00 +23°C° 0 mm 2 m/s 629 mmHg 54%
    11:00 +22°C° 0.2 mm 3 m/s 628 mmHg 53%
    12:00 +24°C° 0.2 mm 3 m/s 628 mmHg 52%
    13:00 +23°C° 0.2 mm 4 m/s 628 mmHg 50%
    14:00 +23°C° 0.4 mm 4 m/s 628 mmHg 53%
    15:00 +22°C° 0.4 mm 3 m/s 627 mmHg 56%
    16:00 +22°C° 0.4 mm 3 m/s 627 mmHg 58%
    17:00 +20°C° 1.2 mm 2 m/s 626 mmHg 65%
    18:00 +17°C° 1.2 mm 2 m/s 626 mmHg 72%
    19:00 +15°C° 1.2 mm 1 m/s 625 mmHg 79%
    20:00 +14°C° 0.3 mm 1 m/s 625 mmHg 81%
    21:00 +13°C° 0.3 mm 1 m/s 625 mmHg 82%
    22:00 +12°C° 0.3 mm 1 m/s 625 mmHg 84%
    23:00 +12°C° 0 mm 1 m/s 625 mmHg 84%

    24 Iunie, Luni

    Timp Temperatura Precipitaţii Vânt Presiune Umiditate
    00:00 +11°C° 0 mm 1 m/s 625 mmHg 84%
    01:00 +11°C° 0 mm 1 m/s 624 mmHg 84%
    02:00 +10°C° 0.1 mm 1 m/s 624 mmHg 85%
    03:00 +10°C° 0.1 mm 1 m/s 624 mmHg 86%
    04:00 +10°C° 0.1 mm 1 m/s 624 mmHg 87%
    05:00 +11°C° 0 mm 1 m/s 625 mmHg 84%
    06:00 +13°C° 0 mm 1 m/s 625 mmHg 81%
    07:00 +14°C° 0 mm 1 m/s 626 mmHg 78%
    08:00 +16°C° 0.5 mm 1 m/s 627 mmHg 73%
    09:00 +17°C° 0.5 mm 2 m/s 627 mmHg 69%
    10:00 +18°C° 0.5 mm 2 m/s 628 mmHg 64%
    11:00 +18°C° 0.8 mm 2 m/s 628 mmHg 65%
    12:00 +19°C° 0.8 mm 2 m/s 628 mmHg 65%
    13:00 +19°C° 0.8 mm 2 m/s 628 mmHg 66%
    14:00 +18°C° 1.1 mm 2 m/s 628 mmHg 70%
    15:00 +18°C° 1.1 mm 2 m/s 628 mmHg 74%
    16:00 +17°C° 1.1 mm 2 m/s 627 mmHg 78%
    17:00 +16°C° 0.3 mm 2 m/s 627 mmHg 82%
    18:00 +15°C° 0.3 mm 2 m/s 627 mmHg 86%
    19:00 +14°C° 0.3 mm 1 m/s 627 mmHg 90%
    20:00 +13°C° 0.2 mm 2 m/s 627 mmHg 90%
    21:00 +12°C° 0.2 mm 2 m/s 627 mmHg 90%
    22:00 +12°C° 0.2 mm 2 m/s 627 mmHg 90%
    23:00 +12°C° 0 mm 2 m/s 627 mmHg 91%

    25 Iunie, Marţi

    Timp Temperatura Precipitaţii Vânt Presiune Umiditate
    00:00 +12°C° 0 mm 1 m/s 627 mmHg 91%
    01:00 +11°C° 0 mm 1 m/s 627 mmHg 92%
    02:00 +11°C° 0 mm 1 m/s 627 mmHg 92%
    03:00 +11°C° 0 mm 1 m/s 627 mmHg 93%
    04:00 +11°C° 0 mm 1 m/s 627 mmHg 94%
    05:00 +12°C° 0 mm 1 m/s 627 mmHg 91%
    06:00 +14°C° 0 mm 1 m/s 628 mmHg 87%
    07:00 +15°C° 0 mm 1 m/s 629 mmHg 84%
    08:00 +16°C° 0.2 mm 2 m/s 629 mmHg 80%
    09:00 +18°C° 0.2 mm 2 m/s 630 mmHg 77%
    10:00 +19°C° 0.2 mm 2 m/s 630 mmHg 73%
    11:00 +19°C° 0.7 mm 2 m/s 630 mmHg 72%
    12:00 +19°C° 0.7 mm 3 m/s 630 mmHg 71%
    13:00 +20°C° 0.7 mm 3 m/s 630 mmHg 69%
    14:00 +19°C° 0.5 mm 3 m/s 630 mmHg 72%
    15:00 +19°C° 0.5 mm 3 m/s 630 mmHg 74%
    16:00 +19°C° 0.5 mm 3 m/s 630 mmHg 76%
    17:00 +17°C° 0.1 mm 3 m/s 629 mmHg 80%
    18:00 +16°C° 0.1 mm 3 m/s 629 mmHg 84%
    19:00 +15°C° 0.1 mm 2 m/s 629 mmHg 88%
    20:00 +14°C° 0 mm 2 m/s 629 mmHg 89%
    21:00 +13°C° 0 mm 2 m/s 629 mmHg 91%
    22:00 +13°C° 0 mm 2 m/s 629 mmHg 92%
    23:00 +12°C° 0 mm 2 m/s 629 mmHg 92%
    Arată mai mult